| time (UTC) | temp F | wind direction | speed MPH | gust MPH | rain 1hr in | rain 24hr in | rain mn in | humidity % | barometer mb |
| 20260901024514 | 57 | 72 | 2.0 | 11.0 | 0.02 | 0.14 | 0.14 | 79 | 1013.7 |
| 20260901023020 | 57 | 88 | 2.0 | 7.0 | 0.08 | 0.14 | 0.14 | 84 | 1013.6 |
| 20260901021512 | 56 | 46 | 9.0 | 17.0 | 0.07 | 0.13 | 0.13 | 82 | 1012.9 |
| 20260901020012 | 56 | 68 | 10.0 | 17.0 | 0.07 | 0.13 | 0.13 | 84 | 1012.9 |
| 20260901014507 | 56 | 322 | 4.0 | 12.0 | 0.05 | 0.11 | 0.11 | 80 | 1013.1 |
| 20260901013005 | 58 | 68 | 4.0 | 17.0 | 0.00 | 0.06 | 0.06 | 74 | 1012.3 |
| 20260901011501 | 59 | 59 | 10.0 | 24.0 | 0.00 | 0.06 | 0.06 | 68 | 1012.1 |
| 20260901010059 | 62 | 44 | 10.0 | 24.0 | 0.00 | 0.06 | 0.06 | 63 | 1011.5 |
| 20260901004601 | 67 | 53 | 9.0 | 14.0 | 0.00 | 0.06 | 0.06 | 46 | 1010.8 |
| 20260901003057 | 65 | 56 | 4.0 | 8.0 | 0.00 | 0.06 | 0.06 | 56 | 1010.3 |
| 20260901001559 | 65 | 46 | 6.0 | 14.0 | 0.00 | 0.06 | 0.06 | 54 | 1010.1 |
| 20260901000056 | 66 | 30 | 6.0 | 18.0 | 0.00 | 0.06 | 0.06 | 50 | 1009.7 |
| 20260831234600 | 74 | 78 | 4.0 | 8.0 | 0.00 | 0.06 | 0.06 | 47 | 1009.3 |
| 20260831233056 | 73 | 193 | 2.0 | 10.0 | 0.00 | 0.06 | 0.06 | 46 | 1008.8 |
| 20260831231555 | 74 | 183 | 12.0 | 26.0 | 0.00 | 0.06 | 0.06 | 43 | 1008.5 |
| 20260831230054 | 76 | 181 | 13.0 | 23.0 | 0.00 | 0.06 | 0.06 | 42 | 1008.0 |
| 20260831224553 | 78 | 205 | 6.0 | 20.0 | 0.00 | 0.06 | 0.06 | 41 | 1007.9 |
| 20260831223052 | 79 | 212 | 15.0 | 25.0 | 0.00 | 0.06 | 0.06 | 39 | 1008.1 |
| 20260831221610 | 79 | 212 | 12.0 | 22.0 | 0.00 | 0.06 | 0.06 | 41 | 1008.2 |
| 20260831220050 | 78 | 169 | 10.0 | 23.0 | 0.00 | 0.06 | 0.06 | 42 | 1008.4 |
| 20260831214550 | 79 | 187 | 11.0 | 21.0 | 0.00 | 0.06 | 0.06 | 42 | 1008.7 |
| 20260831213048 | 78 | 182 | 10.0 | 21.0 | 0.00 | 0.06 | 0.06 | 44 | 1009.0 |
| 20260831211548 | 76 | 209 | 16.0 | 26.0 | 0.00 | 0.06 | 0.06 | 46 | 1009.1 |
| 20260831210049 | 77 | 226 | 11.0 | 20.0 | 0.00 | 0.06 | 0.06 | 46 | 1009.1 |
| 20260831204546 | 77 | 197 | 13.0 | 26.0 | 0.00 | 0.06 | 0.06 | 48 | 1009.0 |
| 20260831203104 | 76 | 180 | 13.0 | 26.0 | 0.00 | 0.06 | 0.06 | 48 | 1008.7 |
| 20260831201553 | 76 | 157 | 12.0 | 20.0 | 0.00 | 0.06 | 0.06 | 50 | 1009.3 |
| 20260831200129 | 74 | 173 | 11.0 | 20.0 | 0.01 | 0.06 | 0.06 | 52 | 1009.5 |
| 20260831194541 | 74 | 198 | 6.0 | 11.0 | 0.04 | 0.06 | 0.06 | 50 | 1008.9 |
| 20260831193041 | 74 | 178 | 6.0 | 11.0 | 0.06 | 0.06 | 0.06 | 50 | 1009.0 |
| 20260831191540 | 72 | 152 | 5.0 | 15.0 | 0.06 | 0.06 | 0.06 | 58 | 1009.5 |
| 20260831190043 | 70 | 215 | 8.0 | 15.0 | 0.05 | 0.05 | 0.05 | 66 | 1009.9 |
| 20260831184536 | 75 | 195 | 11.0 | 19.0 | 0.01 | 0.01 | 0.01 | 53 | 1010.1 |
| 20260831183034 | 77 | 193 | 9.0 | 18.0 | 0.00 | 0.00 | 0.00 | 46 | 1009.5 |
| 20260831181537 | 79 | 162 | 8.0 | 16.0 | 0.00 | 0.00 | 0.00 | 43 | 1009.5 |
| 20260831180032 | 79 | 214 | 11.0 | 21.0 | 0.00 | 0.00 | 0.00 | 42 | 1009.7 |
| 20260831174530 | 80 | 210 | 6.0 | 17.0 | 0.00 | 0.00 | 0.00 | 43 | 1009.8 |
| 20260831173031 | 78 | 204 | 9.0 | 17.0 | 0.00 | 0.00 | 0.00 | 42 | 1010.0 |
| 20260831171526 | 78 | 176 | 7.0 | 17.0 | 0.00 | 0.00 | 0.00 | 42 | 1010.3 |
| 20260831170033 | 78 | 189 | 10.0 | 18.0 | 0.00 | 0.00 | 0.00 | 42 | 1010.5 |
| 20260831164524 | 77 | 197 | 10.0 | 17.0 | 0.00 | 0.00 | 0.00 | 42 | 1010.6 |
| 20260831163024 | 77 | 168 | 8.0 | 14.0 | 0.00 | 0.00 | 0.00 | 42 | 1010.7 |
| 20260831161522 | 77 | 176 | 9.0 | 15.0 | 0.00 | 0.00 | 0.00 | 41 | 1010.8 |
| 20260831160021 | 78 | 176 | 7.0 | 14.0 | 0.00 | 0.00 | 0.00 | 40 | 1010.9 |
| 20260831154518 | 77 | 204 | 5.0 | 10.0 | 0.00 | 0.00 | 0.00 | 39 | 1010.9 |
| 20260831153015 | 76 | 214 | 5.0 | 11.0 | 0.00 | 0.00 | 0.00 | 38 | 1011.1 |
| 20260831151514 | 75 | 212 | 6.0 | 10.0 | 0.00 | 0.00 | 0.00 | 37 | 1011.0 |
| 20260831150010 | 74 | 203 | 5.0 | 10.0 | 0.00 | 0.00 | 0.00 | 39 | 1011.0 |
| 20260831144507 | 66 | 5 | 0.0 | 0.0 | 0.00 | 0.00 | 0.00 | 47 | 1011.1 |
| 20260831143007 | 64 | 299 | 0.0 | 0.0 | 0.00 | 0.00 | 0.00 | 48 | 1011.1 |
| 20260831141506 | 62 | 298 | 0.0 | 0.0 | 0.00 | 0.00 | 0.00 | 49 | 1010.9 |
| 20260831140005 | 60 | 298 | 0.0 | 0.0 | 0.00 | 0.00 | 0.00 | 51 | 1010.8 |
| 20260831134502 | 59 | 247 | 0.0 | 0.0 | 0.00 | 0.00 | 0.00 | 52 | 1010.6 |
| 20260831133201 | 57 | 251 | 0.0 | 0.0 | 0.00 | 0.00 | 0.00 | 53 | 1010.4 |
| 20260831131602 | 57 | 360 | 0.0 | 0.0 | 0.00 | 0.00 | 0.00 | 53 | 1010.3 |
| 20260831130059 | 57 | 360 | 0.0 | 0.0 | 0.00 | 0.00 | 0.00 | 52 | 1010.3 |
| 20260831124557 | 60 | 244 | 0.0 | 1.0 | 0.00 | 0.00 | 0.00 | 50 | 1010.1 |
| 20260831123055 | 62 | 213 | 1.0 | 3.0 | 0.00 | 0.00 | 0.00 | 48 | 1010.0 |
| 20260831121553 | 59 | 251 | 0.0 | 1.0 | 0.00 | 0.00 | 0.00 | 51 | 1009.9 |
| 20260831120119 | 60 | 249 | 0.0 | 2.0 | 0.00 | 0.00 | 0.00 | 50 | 1009.9 |
| 20260831114551 | 56 | 290 | 0.0 | 0.0 | 0.00 | 0.00 | 0.00 | 53 | 1009.9 |
| 20260831113053 | 57 | 290 | 0.0 | 1.0 | 0.00 | 0.00 | 0.00 | 52 | 1009.9 |
| 20260831111556 | 58 | 226 | 0.0 | 3.0 | 0.00 | 0.00 | 0.00 | 52 | 1009.9 |
| 20260831110049 | 56 | 263 | 0.0 | 0.0 | 0.00 | 0.01 | 0.00 | 55 | 1009.8 |
| 20260831104552 | 56 | 263 | 0.0 | 0.0 | 0.00 | 0.01 | 0.00 | 57 | 1009.8 |
| 20260831103046 | 57 | 263 | 0.0 | 0.0 | 0.00 | 0.01 | 0.00 | 55 | 1009.8 |
| 20260831101546 | 57 | 263 | 0.0 | 0.0 | 0.00 | 0.01 | 0.00 | 53 | 1009.9 |
| 20260831100043 | 57 | 212 | 0.0 | 0.0 | 0.00 | 0.01 | 0.00 | 53 | 1009.8 |
| 20260831094539 | 57 | 274 | 0.0 | 0.0 | 0.00 | 0.01 | 0.00 | 51 | 1009.6 |
| 20260831093036 | 58 | 259 | 0.0 | 0.0 | 0.00 | 0.01 | 0.00 | 50 | 1009.4 |
| 20260831091536 | 59 | 276 | 0.0 | 2.0 | 0.00 | 0.01 | 0.00 | 50 | 1009.2 |
| 20260831090034 | 58 | 259 | 0.0 | 3.0 | 0.00 | 0.01 | 0.00 | 51 | 1009.2 |
| 20260831084530 | 59 | 228 | 0.0 | 1.0 | 0.00 | 0.01 | 0.00 | 51 | 1009.0 |
| 20260831083028 | 60 | 165 | 0.0 | 0.0 | 0.00 | 0.01 | 0.00 | 49 | 1009.0 |
| 20260831081525 | 61 | 233 | 0.0 | 0.0 | 0.00 | 0.01 | 0.00 | 49 | 1009.0 |
| 20260831080026 | 61 | 213 | 0.0 | 0.0 | 0.00 | 0.01 | 0.00 | 49 | 1008.8 |
| 20260831074524 | 62 | 231 | 0.0 | 0.0 | 0.00 | 0.01 | 0.00 | 47 | 1008.8 |
| 20260831073016 | 64 | 212 | 0.0 | 0.0 | 0.00 | 0.01 | 0.00 | 45 | 1008.8 |
| 20260831071514 | 64 | 213 | 0.0 | 0.0 | 0.00 | 0.01 | 0.00 | 44 | 1008.9 |
| 20260831070013 | 65 | 255 | 0.0 | 0.0 | 0.00 | 0.01 | 0.00 | 43 | 1008.9 |
| 20260831064508 | 67 | 226 | 0.0 | 2.0 | 0.00 | 0.01 | 0.00 | 41 | 1008.8 |
| 20260831063005 | 67 | 205 | 1.0 | 3.0 | 0.00 | 0.01 | 0.00 | 40 | 1008.8 |
| 20260831061502 | 68 | 184 | 1.0 | 3.0 | 0.00 | 0.01 | 0.00 | 39 | 1008.8 |
| 20260831060111 | 69 | 198 | 1.0 | 3.0 | 0.00 | 0.01 | 0.00 | 37 | 1008.8 |
| 20260831054559 | 70 | 205 | 1.0 | 3.0 | 0.00 | 0.01 | 0.01 | 37 | 1008.9 |
| 20260831053126 | 70 | 181 | 1.0 | 4.0 | 0.00 | 0.01 | 0.01 | 36 | 1008.9 |
| 20260831051604 | 71 | 219 | 2.0 | 5.0 | 0.00 | 0.01 | 0.01 | 35 | 1008.8 |
| 20260831050056 | 72 | 206 | 3.0 | 6.0 | 0.00 | 0.01 | 0.01 | 34 | 1008.8 |
| 20260831044554 | 72 | 225 | 3.0 | 7.0 | 0.00 | 0.01 | 0.01 | 33 | 1008.7 |
| 20260831043053 | 73 | 210 | 6.0 | 9.0 | 0.00 | 0.01 | 0.01 | 33 | 1008.6 |
| 20260831041555 | 73 | 169 | 5.0 | 7.0 | 0.00 | 0.01 | 0.01 | 33 | 1008.4 |
| 20260831040053 | 72 | 222 | 0.0 | 4.0 | 0.00 | 0.01 | 0.01 | 34 | 1008.2 |
| 20260831034553 | 73 | 217 | 1.0 | 4.0 | 0.00 | 0.01 | 0.01 | 33 | 1008.0 |
| 20260831033105 | 73 | 198 | 0.0 | 3.0 | 0.00 | 0.01 | 0.01 | 33 | 1007.9 |
| 20260831031551 | 74 | 190 | 0.0 | 2.0 | 0.00 | 0.01 | 0.01 | 33 | 1007.8 |
| 20260831030050 | 75 | 194 | 1.0 | 4.0 | 0.00 | 0.01 | 0.01 | 32 | 1007.6 |